Orbital Elements at Epoch 2459200.5 (2020-Dec-17.0) TDB
Reference: JPL 25 (heliocentric ecliptic J2000)
Element | Value | Uncertainty (1-sigma) | Units |
e | .1849456077732818 | 4.6471e-08 | |
a | 2.443243971479947 | 6.2529e-09 | au |
q | 1.991376730236181 | 1.1492e-07 | au |
i | 3.447160833833956 | 4.6692e-06 | deg |
node | 64.23079047149973 | 5.9572e-05 | deg |
peri | 339.4155853306638 | 6.0393e-05 | deg |
M | 6.917586064141099 | 8.6326e-06 | deg |
tp | 2459173.695929537191 (2020-Nov-20.19592954) | 3.3449e-05 | TDB |
period | 1394.91800711112 3.82 | 5.3549e-06 1.466e-08 | d yr |
n | .258079685088847 | 9.9074e-10 | deg/d |
Q | 2.895111212723712 | 7.4093e-09 | au |
|
| | Orbit Determination Parameters
Additional Information
|